FENGYUN 1C DEB

Satellite information

Favourite Embed

Satellite Type and Status

DEBRISIN ORBIT

Key statistics

Satellite FENGYUN 1C DEB at a glance.

Uptime

9497

Days in orbit

Revolutions

≈ 14.4

Per day

Orbit

SSO

Sun Synchronous Orbit

Inclination

98.9

Latest

Satellite identification and parameters

Extended collection of information and parameters for FENGYUN 1C DEB.

Object identification

Identified? True

Debris? True

Object name: FENGYUN 1C DEB

International designator: 1999-025BHA

Object number (NORAD): 31148

Object ID (CCSDS): 31148

Country: PEOPLES REPUBLIC OF CHINA (PRC)

Current information (Y/N): Y

RCS size: SMALL

Orbital parameters

Period: 99.865 minutes

Inclination: 98.8893 deg

SMA: 7130.197 km

Apoapsis: 851.136 km

Periapsis: 652.989 km

RAAN: 1.891 deg

Eccentricy: 0.0138949

Argument of periapsis: 350.0938 deg

Mean anomaly: 9.7516 deg

Mean motion: 14.41950793 rev/day

Mean motion (dot): 0.00003504 rev/day2

B* drag term: 0.00096665 1/REarth

Two-line elements (TLE)

Creation date: May 6, 2025, 3:54 a.m.

Reference frame: TEME

Reference center: EARTH

Epoch: May 5, 2025, 8:53 a.m. UTC

TLE line 0: 0 FENGYUN 1C DEB

TLE line 1: 1 31148U 99025BHA 25125.37034893 .00003504 00000-0 96665-3 0 9991

TLE line 2: 2 31148 98.8893 1.8910 0138949 350.0938 9.7516 14.41950793943394

Live tracking on map

Real-time ground track for satellite FENGYUN 1C DEB.

In-orbit conjunctions

A list of the most updated potential collisions computed for object FENGYUN 1C DEB.

Target Orbit TCA Probability of collision Miss distance Type
SL-16 DEB LEO 2024-11-16 22:22:52 0.0001677029 922.0 (m) DEBRIS
FENGYUN 1C DEB SSO 2024-09-02 14:59:21 0.0001123001 894.0 (m) DEBRIS
IRIDIUM 920 LEO 2024-08-30 14:46:29 0.0002471459 512.0 (m) PAYLOAD

Associated space launch

Chinese polar orbiting meteorological satellite

FENGYUN 1C DEB was lifted into orbit during the mission ‘Long March 4B | Feng Yun 1C’, on board a Long March 4B space rocket.

The launch took place on May 10, 1999, 1:33 a.m. from Launch Complex 7.

For more information about the launch, click the button.

Launch to space Long March 4B | Feng Yun 1C
Long March 4B | Feng Yun 1C

Agency: N/A

Status: Launch Successful

Launch date: May 10, 1999, 1:33 a.m. UTC

Rocket: Long March 4B

Launch pad: Launch Complex 7

Location: Taiyuan Satellite Launch Center, People's Republic of China

...

Latest news about this satellite

There are no fresh news available about this satellite. Check back as we update our databases every day.


Newsletter sign-up

Weekly statistics, charts and insights to help you stay on top of the space industry.